Wolf Creek Pass, CO

3:54 AM MDT on August 22, 2017 (GMT -0600)
Wolf Creek Pass

Weather History for KCPW - July, 2013

Change the Weather History Date:

Wednesday, July 10, 2013

  Actual Average (KALS) Record (KALS)
Temperature  
Mean Temperature 54 °F -  
Max Temperature 64 °F 81 °F 91 °F (2003)
Min Temperature 44 °F 48 °F 37 °F (1982)
Degree Days  
Heating Degree Days 11    
Growing Degree Days 4 (Base 50)    
Moisture  
Dew Point 39 °F    
Average Humidity 61    
Maximum Humidity 93    
Minimum Humidity 40    
Precipitation  
Precipitation 0.01 in - - ()
Sea Level Pressure  
Sea Level Pressure 30.72 in    
Wind  
Wind Speed - (North)    
Max Wind Speed -    
Max Gust Speed -    
Visibility 10 miles    
Events Rain , Thunderstorm    
Averages and records for this station are not official NWS values.
T = Trace of Precipitation, MM = Missing Value Source: NWS Daily Summary

Daily Weather History Graph

Daily Weather History Graph

Search for Another Location

Airport or City:

Trip Planner

Search our weather history database for the weather conditions in past years. The results will help you decide how hot, cold, wet, or windy it might be!

Date:

Astronomy

Jul. 10, 2013 Rise Set
Actual Time 5:55 AM MDT 8:29 PM MDT
Civil Twilight 5:24 AM MDT 9:00 PM MDT
Nautical Twilight 4:46 AM MDT 9:38 PM MDT
Astronomical Twilight 4:04 AM MDT 10:20 PM MDT
Moon 8:14 AM MDT (7/10) 9:45 PM MDT (7/10)
Length of Visible Light 15h 35m
Length of Day
14h 34m
Waxing Crescent, 5% of the Moon is Illuminated
Jul 10
Waxing Crescent
Jul 15
First Quarter
Jul 22
Full
Jul 29
Last Quarter
Aug 6
New

Hourly Weather History & Observations

Time (MDT) Temp. Dew Point Humidity Pressure Visibility Wind Dir Wind Speed Gust Speed Precip Events Conditions
12:17 AM 51.8 °F 37.4 °F 58% 30.75 in 10.0 mi North - - N/A   Overcast
12:37 AM 51.8 °F 37.4 °F 58% 30.75 in 10.0 mi North - - N/A   Overcast
12:57 AM 51.8 °F 35.6 °F 54% 30.75 in 10.0 mi North - - N/A   Overcast
1:17 AM 51.8 °F 35.6 °F 54% 30.75 in 10.0 mi North - - N/A   Overcast
1:37 AM 51.8 °F 35.6 °F 54% 30.74 in 10.0 mi North - - N/A   Overcast
1:57 AM 51.8 °F 35.6 °F 54% 30.74 in 10.0 mi North - - N/A   Overcast
2:17 AM 51.8 °F 35.6 °F 54% 30.73 in 10.0 mi North - - N/A   Mostly Cloudy
2:37 AM 51.8 °F 35.6 °F 54% 30.73 in 10.0 mi North - - N/A   Scattered Clouds
2:57 AM 50.0 °F 37.4 °F 62% 30.73 in 10.0 mi North - - N/A   Clear
3:17 AM 50.0 °F 37.4 °F 62% 30.73 in 10.0 mi North - - N/A   Clear
3:37 AM 50.0 °F 37.4 °F 62% 30.72 in 10.0 mi North - - N/A   Clear
3:57 AM 50.0 °F 37.4 °F 62% 30.73 in 10.0 mi North - - N/A   Clear
4:17 AM 50.0 °F 37.4 °F 62% 30.73 in 10.0 mi North - - N/A   Clear
4:37 AM 48.2 °F 37.4 °F 66% 30.73 in 10.0 mi North - - N/A   Clear
4:57 AM 50.0 °F 37.4 °F 62% 30.73 in 10.0 mi North - - N/A   Clear
5:17 AM 48.2 °F 37.4 °F 66% 30.73 in 10.0 mi North - - N/A   Clear
5:37 AM 48.2 °F 37.4 °F 66% 30.73 in 10.0 mi North - - N/A   Clear
5:57 AM 48.2 °F 37.4 °F 66% 30.73 in 10.0 mi North - - N/A   Clear
6:17 AM 50.0 °F 37.4 °F 62% 30.74 in 10.0 mi North - - N/A   Scattered Clouds
6:37 AM 50.0 °F 37.4 °F 62% 30.74 in 10.0 mi North - - N/A   Clear
6:57 AM 51.8 °F 37.4 °F 58% 30.74 in 10.0 mi North - - N/A   Clear
7:17 AM 51.8 °F 37.4 °F 58% 30.74 in 10.0 mi North - - N/A   Clear
7:37 AM 51.8 °F 37.4 °F 58% 30.74 in 10.0 mi North - - N/A   Clear
7:57 AM 53.6 °F 39.2 °F 58% 30.75 in 10.0 mi North - - N/A   Clear
8:17 AM 53.6 °F 39.2 °F 58% 30.75 in 10.0 mi North - - N/A   Clear
8:37 AM 55.4 °F 39.2 °F 54% 30.75 in 10.0 mi North - - N/A   Clear
8:57 AM 55.4 °F 41.0 °F 58% 30.76 in 10.0 mi North - - N/A   Clear
9:17 AM 57.2 °F 41.0 °F 55% 30.76 in 10.0 mi North - - N/A   Clear
9:37 AM 57.2 °F 41.0 °F 55% 30.76 in 10.0 mi North - - N/A   Clear
9:57 AM 57.2 °F 41.0 °F 55% 30.76 in 10.0 mi North - - N/A   Clear
10:17 AM 59.0 °F 41.0 °F 51% 30.76 in 10.0 mi North - - N/A   Clear
10:37 AM 59.0 °F 41.0 °F 51% 30.76 in 10.0 mi North - - N/A   Clear
10:57 AM 59.0 °F 41.0 °F 51% 30.76 in 10.0 mi North - - N/A   Clear
11:17 AM 60.8 °F 41.0 °F 48% 30.76 in 10.0 mi North - - N/A   Clear
11:37 AM 60.8 °F 41.0 °F 48% 30.76 in 10.0 mi North - - N/A   Scattered Clouds
11:57 AM 62.6 °F 42.8 °F 48% 30.75 in 10.0 mi North - - N/A   Scattered Clouds
12:17 PM 62.6 °F 42.8 °F 48% 30.75 in 10.0 mi North - - N/A Thunderstorm Scattered Clouds
12:37 PM 62.6 °F 41.0 °F 45% 30.74 in 10.0 mi North - - N/A   Scattered Clouds
12:57 PM 64.4 °F 39.2 °F 40% 30.74 in 10.0 mi North - - N/A Thunderstorm Scattered Clouds
1:17 PM 64.4 °F 41.0 °F 42% 30.73 in 10.0 mi North - - N/A Thunderstorm Thunderstorm
1:37 PM 60.8 °F 37.4 °F 42% 30.72 in 10.0 mi North - - N/A   Scattered Clouds
1:57 PM 60.8 °F 41.0 °F 48% 30.72 in 10.0 mi North - - N/A Thunderstorm Thunderstorm
2:17 PM 59.0 °F 39.2 °F 48% 30.71 in 10.0 mi North - - N/A Thunderstorm Overcast
2:37 PM 55.4 °F 39.2 °F 54% 30.72 in 10.0 mi North - - N/A Thunderstorm Thunderstorm
2:57 PM 53.6 °F 41.0 °F 62% 30.72 in 10.0 mi North - - N/A Thunderstorm Overcast
3:17 PM 51.8 °F 41.0 °F 67% 30.72 in 10.0 mi North - - N/A Thunderstorm Overcast
3:37 PM 50.0 °F 37.4 °F 62% 30.72 in 10.0 mi North - - N/A Rain , Thunderstorm Light Thunderstorms and Rain
3:57 PM 50.0 °F 39.2 °F 66% 30.72 in 10.0 mi North - - N/A Rain , Thunderstorm Light Thunderstorms and Rain
4:17 PM 51.8 °F 37.4 °F 58% 30.70 in 7.0 mi North - - N/A Rain Light Rain
4:37 PM 55.4 °F 44.6 °F 67% 30.68 in 10.0 mi North - - N/A Thunderstorm Overcast
4:57 PM 53.6 °F 41.0 °F 62% 30.68 in 10.0 mi North - - N/A   Mostly Cloudy
5:17 PM 55.4 °F 41.0 °F 58% 30.66 in 10.0 mi North - - N/A   Overcast
5:37 PM 55.4 °F 39.2 °F 54% 30.66 in 10.0 mi North - - N/A   Scattered Clouds
5:57 PM 55.4 °F 39.2 °F 54% 30.66 in 10.0 mi North - - N/A   Scattered Clouds
6:17 PM 55.4 °F 37.4 °F 51% 30.66 in 10.0 mi North - - N/A Thunderstorm Thunderstorm
6:37 PM 51.8 °F 42.8 °F 71% 30.66 in 10.0 mi North - - N/A Thunderstorm Thunderstorm
6:57 PM 48.2 °F 41.0 °F 76% 30.66 in 10.0 mi North - - N/A   Mostly Cloudy
7:17 PM 46.4 °F 41.0 °F 81% 30.67 in 10.0 mi North - - 0.01 in Rain Rain
7:37 PM 44.6 °F 42.8 °F 93% 30.66 in 10.0 mi North - - 0.01 in Rain Light Rain
7:57 PM 46.4 °F 41.0 °F 81% 30.67 in 10.0 mi North - - 0.01 in   Overcast
8:17 PM 44.6 °F 41.0 °F 87% 30.67 in 10.0 mi North - - N/A   Mostly Cloudy
8:37 PM 44.6 °F 41.0 °F 87% 30.69 in 10.0 mi North - - N/A   Mostly Cloudy
8:57 PM 44.6 °F 41.0 °F 87% 30.69 in 10.0 mi North - - N/A Rain Light Rain
9:17 PM 44.6 °F 41.0 °F 87% 30.67 in 10.0 mi North - - N/A   Overcast
9:37 PM 44.6 °F 41.0 °F 87% 30.67 in 10.0 mi North - - N/A   Overcast
9:57 PM 44.6 °F 41.0 °F 87% 30.69 in 10.0 mi North - - N/A   Scattered Clouds
10:17 PM 48.2 °F 37.4 °F 66% 30.69 in 10.0 mi North - - N/A   Clear
10:37 PM 48.2 °F 37.4 °F 66% 30.70 in 10.0 mi North - - N/A   Clear
10:57 PM 50.0 °F 37.4 °F 62% 30.70 in 10.0 mi North - - N/A   Clear
11:17 PM 51.8 °F 35.6 °F 54% 30.70 in 10.0 mi North - - N/A   Scattered Clouds
11:37 PM 53.6 °F 35.6 °F 51% 30.70 in 10.0 mi North - - N/A   Overcast
11:57 PM 51.8 °F 35.6 °F 54% 30.70 in 10.0 mi North - - N/A   Mostly Cloudy